Location: Laurel (historical)
(38.1020°N, 100.0810°W)
Time: 04:36:57
(UTC+00:00)

Daily predictions for brighter satellites

Satellite Brightness Start Highest point End
(mag) Time Altitude Azimuth Time Altitude Azimuth Time Altitude Azimuth
Okean-O 3.6 02:00:39 10° S 02:04:57 50° W 02:09:16 10° NNW
Cosmos 1763 Rocket 4.2 02:00:33 10° NNW 02:05:31 55° WSW 02:10:30 10° S
DELTA 2 R/B (1) 3.8 02:00:43 10° W 02:06:18 78° N 02:11:52 10° E
Cosmos 1606 3.9 02:04:56 10° SE 02:07:54 23° E 02:10:53 10° NE
ASTRO E2 3.7 02:04:40 10° WSW 02:08:12 31° S 02:11:44 10° ESE
NOSS 3-1 (A) 4.3 02:00:23 10° NNW 02:08:15 89° WSW 02:17:13 10° SSE
GENESIS II 4.2 02:04:49 10° NNW 02:08:43 75° ENE 02:12:33 10° SE
SL-4 R/B 3.9 02:05:49 10° NNW 02:09:24 24° NNE 02:13:10 10° E
Aureole 1 Rocket 4.3 02:06:20 10° SW 02:11:06 47° WNW 02:14:48 10° N
Cosmos 841 Rocket 3.5 02:07:10 10° NNW 02:12:20 76° ENE 02:17:28 10° SSE
IRIS 4.3 02:10:34 10° W 02:12:50 51° N 02:15:25 10° ENE
ARGOS 4.4 02:07:51 10° S 02:12:56 44° W 02:18:04 10° NNW
CZ-4 R/B 3.9 02:14:10 10° SSW 02:17:27 23° W 02:20:41 10° NW
Meteor 2-15 4.4 02:12:27 10° S 02:18:30 80° E 02:24:34 10° N
Meteor 2-2 Rocket 4.2 02:14:42 10° S 02:20:22 78° E 02:26:00 10° NNE
Cosmos 1500 Rocket 4.3 02:18:29 10° NNE 02:22:31 34° ENE 02:26:25 10° SE
Cosmos 2221 2.4 02:18:49 10° S 02:23:05 82° E 02:27:26 10° N
Cosmos 1174 3.6 02:22:53 10° NW 02:26:30 67° WSW 02:29:34 10° SSE
Cosmos 2263 Rocket 4.2 02:28:01 10° WSW 02:32:57 32° WNW 02:37:55 10° N
Cosmos 1943 3.5 02:31:05 10° NNW 02:36:43 71° WSW 02:42:19 10° SSE
ERS-2 3.5 02:33:20 10° N 02:36:47 41° WNW 02:40:12 10° SW
Cosmos 1844 Rocket 2.7 02:32:36 10° S 02:38:00 56° ESE 02:43:27 10° NNE
Resurs 01 Rocket 2.7 02:36:34 16° ESE 02:39:20 29° ENE 02:43:09 10° N
MOS 1-B Rocket 4.3 02:32:39 10° NNE 02:40:13 84° ESE 02:46:35 10° SSW
IRS-1A Rocket 4.4 02:34:43 10° SSE 02:40:21 65° ENE 02:46:08 10° N
S3M 4.4 02:36:13 10° SSE 02:42:13 45° E 02:48:12 10° NNE
Cosmos 1570 Rocket 4.1 02:38:17 10° NNW 02:43:33 80° WSW 02:48:44 10° SSE
Ariane Rocket 3.0 02:40:23 11° SSE 02:45:12 67° ENE 02:50:14 10° N
Cosmos 1862 3.5 02:41:35 10° NNW 02:45:35 72° W 02:49:34 10° S
Cosmos 1933 4.4 02:43:53 19° SE 02:45:43 26° E 02:49:08 10° NNE
X-37B 2.8 02:46:40 10° WNW 02:49:18 23° N 02:51:56 10° NE
Sich 1 3.9 02:50:43 10° NNE 02:54:35 31° ENE 02:56:14 23° ESE
Cosmos 1844 3.7 02:50:13 10° S 02:55:53 65° ESE 03:01:31 10° NNE
Cosmos 1814 Rocket 4.5 02:53:16 10° NNW 02:58:23 59° WSW 03:03:23 10° S
Cosmos 1437 Rocket 2.6 02:56:10 10° S 02:59:58 81° E 03:03:53 10° N
Cosmos 1553 Rocket 4.0 02:55:08 10° S 03:01:13 86° W 03:07:27 10° N
SPOT 3 Rocket 3.8 03:02:32 23° SE 03:05:30 52° ENE 03:10:30 10° N
BREEZE-M DEB (TANK) 1.9 03:04:02 10° WNW 03:06:17 71° SW 03:07:19 37° SE
ATLAS 5 CENTAUR R/B 3.6 03:02:02 10° N 03:06:51 27° NE 03:10:23 17° E
Cosmos 1242 Rocket 2.8 03:11:06 40° ESE 03:11:41 43° E 03:15:06 10° NNE
Cosmos 1782 3.8 03:12:19 28° E 03:12:20 28° E 03:15:47 10° NNE
Cosmos 1151 Rocket 3.8 03:13:21 31° ESE 03:13:53 32° E 03:17:47 10° NNE
CZ-2C R/B 3.8 03:10:16 10° NNE 03:14:39 52° E 03:16:47 28° SSE
Cosmos 968 Rocket 4.1 03:10:41 10° SSW 03:15:51 58° WNW 03:21:02 10° N
Cosmos 1486 Rocket 4.4 03:14:49 10° SSW 03:20:06 68° WNW 03:25:26 10° NNE
OBJECT-B 3.5 03:20:05 10° SW 03:22:20 18° W 03:24:37 10° NW
Landsat 7 3.8 03:23:52 35° SSE 03:25:47 71° ENE 03:30:33 10° N
FALCON 9 DEB 2.7 03:24:40 10° NW 03:27:35 82° WNW 03:27:35 82° WNW
ARIANE 5 R/B 3.5 03:27:44 30° E 03:28:10 30° ENE 03:31:58 10° N
BREEZE-M DEB (TANK) 3.3 03:26:03 10° NW 03:33:38 56° NNE 03:34:30 42° ENE
Cosmos 1805 Rocket 3.8 03:29:49 10° NNW 03:34:08 66° W 03:36:01 32° SSW
FALCON 9 DEB 3.2 03:31:12 10° NW 03:33:51 59° W 03:33:51 59° W
CRYOSAT 2 4.4 03:35:37 45° SE 03:36:50 60° E 03:41:40 10° N
Cosmos 1602 4.0 03:35:45 10° N 03:39:21 52° ENE 03:39:21 52° ENE
FALCON 9 DEB 3.5 03:38:53 10° NW 03:41:19 52° WNW 03:41:19 52° WNW
Cosmos 1633 Rocket 3.2 03:38:54 10° N 03:43:11 52° E 03:43:21 52° E
Meteor 1-20 Rocket 4.1 03:37:53 10° N 03:43:32 86° W 03:45:46 38° S
Cosmos 2082 Rocket 4.4 03:44:23 10° NNE 03:46:17 12° NE 03:48:04 10° ENE
SL-4 R/B 2.1 03:44:56 10° NW 03:49:27 81° SW 03:50:00 68° SSE
Cosmos 1328 Rocket 3.4 03:49:46 67° ESE 03:49:57 68° E 03:54:22 10° NNE
Cosmos 1470 Rocket 4.5 03:47:30 10° N 03:51:12 35° ENE 03:51:12 35° ENE
DELTA 2 R/B (1) 3.4 03:47:19 10° WNW 03:52:54 89° SSW 03:54:20 52° ESE
Spot 2 Rocket 3.5 03:52:22 56° ESE 03:53:11 66° ENE 03:58:12 10° N
NOSS 3-3 (A) 3.7 03:48:23 10° SSW 03:53:57 83° ESE 04:00:16 10° NE
NOSS 3-3 (C) 3.7 03:48:29 10° SSW 03:54:04 83° ESE 04:00:22 10° NE
CARTOSAT-1 3.7 03:55:59 57° ENE 03:55:59 57° ENE 04:00:04 10° N
USA 290 3.6 04:00:03 10° NNW 04:02:15 38° NW 04:02:15 38° NW
Cosmos 1812 4.1 04:06:17 30° NNE 04:06:17 30° NNE 04:08:28 10° NNE
Cosmos 2278 Rocket 2.4 04:08:10 49° E 04:08:10 49° E 04:13:03 10° NNE
Cosmos 1666 Rocket 3.7 04:03:47 10° NNW 04:08:08 63° W 04:08:24 61° WSW
ERS-1 Rocket 3.0 04:11:00 63° ENE 04:11:03 63° ENE 04:16:02 10° N
Cosmos 2184 Rocket 4.5 04:07:20 10° N 04:13:11 41° ENE 04:13:28 41° E
Cosmos 1709 Rocket 4.1 04:09:43 10° NNW 04:15:45 66° W 04:17:42 43° SSW
Resurs 01 Rocket 3.5 04:14:08 19° SW 04:15:47 24° W 04:19:22 10° NW
Cosmos 1777 Rocket 3.8 04:17:06 82° S 04:17:20 87° ESE 04:22:34 10° NNE
SPOT 5 2.9 04:20:40 76° ENE 04:20:40 76° ENE 04:25:45 10° N
Cosmos 2074 Rocket 4.2 04:15:56 10° N 04:22:03 51° E 04:22:22 51° E
X-37B 3.3 04:23:39 10° NW 04:25:07 21° NNW 04:25:07 21° NNW
SJ 16-02 2.9 04:29:01 27° NE 04:29:01 27° NE 04:31:08 10° NNE
Terra 2.2 04:33:36 58° NNE 04:33:36 58° NNE 04:37:34 10° N
Milstar 3 3.8 04:23:22 10° WSW 04:34:24 42° S 04:34:24 42° S
Meteor 1-5 Rocket 4.1 04:36:26 10° N 04:41:27 77° NNW 04:41:27 77° NNW
ATLAS 5 CENTAUR R/B 2.7 04:45:58 10° NW 04:51:49 59° WSW 04:51:54 59° WSW
Cosmos 1833 Rocket 2.9 04:53:46 10° NNW 04:58:45 69° N 04:58:45 69° N
CZ-4C R/B 2.9 04:56:04 10° NNW 05:03:38 80° ENE 05:04:43 69° ESE
Meteor 1-27 Rocket 4.0 05:14:45 65° N 05:14:45 65° N 05:19:45 10° N
COSMOS 2406 3.9 05:20:49 10° NNW 05:25:09 47° WNW 05:25:09 47° WNW
Cosmos 2082 Rocket 2.8 05:25:39 10° NNW 05:29:54 52° N 05:29:54 52° N
NOSS 3-4 (A) 3.9 05:33:04 10° NNW 05:40:15 76° ENE 05:40:17 76° ENE
NOSS 3-4 (C) 3.9 05:33:10 10° NNW 05:40:21 75° NE 05:40:22 75° ENE
USA 215 4.4 05:49:20 27° ENE 05:51:50 36° NNE 05:57:40 10° NNW
Cosmos 2278 Rocket 4.2 05:49:56 18° W 05:51:57 22° NW 05:56:19 10° N
ATLAS 2AS CENTAUR R/B 3.1 05:46:42 10° NNW 05:53:50 54° NE 05:53:51 54° NE
Cosmos 2369 Rocket 3.9 06:05:51 25° NE 06:05:51 25° NE 06:08:18 10° NE
SJ 16-02 4.1 06:05:57 13° WNW 06:05:57 13° WNW 06:07:52 10° NNW
Cosmos 1943 Rocket 3.3 06:17:04 41° N 06:17:04 41° N 06:20:42 10° NNE
CZ-2D R/B 4.4 06:58:40 10° NE 07:00:42 15° ENE 07:00:42 15° ENE
SeaSat 1 4.0 06:57:39 10° NNE 07:00:36 33° N 07:00:36 33° N
ATLAS CENTAUR R/B 4.2 07:30:57 13° NNE 07:30:57 13° NNE 07:31:26 10° NNE
Resurs 1-4 Rocket 3.8 07:24:04 10° NE 07:27:22 26° ENE 07:27:22 26° ENE
USA 215 3.8 07:36:38 45° WNW 07:36:38 45° WNW 07:41:03 10° NW
ATLAS 2AS CENTAUR R/B 4.3 07:38:28 10° NW 07:41:15 21° WNW 07:41:15 21° WNW
Cosmos 2369 Rocket 3.8 07:47:36 25° NW 07:47:36 25° NW 07:51:49 10° N
Cosmos 1605 Rocket 4.1 07:44:31 10° N 07:50:23 70° NE 07:50:23 70° NE
Lacrosse 5 2.6 08:18:22 49° ENE 08:18:22 49° ENE 08:22:11 10° NE
USA 281 3.1 08:21:23 70° W 08:21:23 70° W 08:27:41 10° NNW
BREEZE-M DEB (TANK) 3.5 08:22:01 51° ESE 08:22:01 51° ESE 08:30:23 10° ENE
Cosmos 44 Rocket 3.9 08:17:54 10° NNW 08:23:02 55° NE 08:23:18 55° ENE
SL-16 R/B 2.5 08:23:43 68° SE 08:24:31 80° ENE 08:30:48 10° NNW
NPP 3.7 08:21:08 10° NNE 08:26:12 76° ENE 08:26:12 76° ENE
ISS -0.5 08:34:05 10° NNW 08:34:28 10° NNW 08:34:57 10° N
ARGOS Delta rocket 4.3 08:30:16 10° NNE 08:34:22 54° ENE 08:34:22 54° ENE
UNK 4.3 08:36:42 52° NNW 08:36:42 52° NNW 08:40:12 10° NNW
Cosmos 1975 Rocket 3.9 08:39:33 45° ENE 08:39:33 45° ENE 08:43:20 10° NNE
Cosmos 2297 Rocket 4.0 08:36:21 10° N 08:41:17 29° ENE 08:46:10 10° ESE
CZ-2D R/B 2.3 08:36:57 10° N 08:42:01 59° WNW 08:42:01 59° WNW
SL-19 R/B 4.1 08:39:06 10° NNE 08:44:48 80° WNW 08:44:57 79° W
Cosmos 371 Rocket 4.0 08:45:59 43° ESE 08:46:13 44° ESE 08:50:50 10° NNE
Cosmos 1727 Rocket 4.1 08:46:01 56° W 08:46:19 56° W 08:52:33 10° N
AQUA 3.9 08:43:35 10° N 08:47:52 69° NNW 08:47:52 69° NNW
Cosmos 1707 4.1 08:50:59 34° N 08:50:59 34° N 08:53:19 10° N
Cosmos 1000 Rocket 4.4 08:50:36 63° S 08:51:44 89° W 08:58:04 10° N
Tianhe-1 3.7 08:54:25 19° ENE 08:54:25 19° ENE 08:55:34 10° ENE
Helios 1B rocket 3.9 08:54:28 10° N 08:57:02 28° NW 08:57:02 28° NW
IDEFIX/ARIANE 42P 3.5 08:53:19 10° NNE 08:58:19 42° E 09:00:04 32° SE
Meteor 2-10 4.5 08:54:59 10° NNW 08:59:32 47° WNW 08:59:32 47° WNW
In-Cosmos 22 4.1 08:59:18 64° S 09:00:14 88° E 09:05:51 10° N
USA 276 4.2 09:02:50 28° NE 09:02:50 28° NE 09:04:30 10° NE
BREEZE-M R/B 3.8 09:01:39 27° WNW 09:04:31 76° SW 09:14:28 10° SE
Okean 1 Rocket 4.4 09:01:23 10° NNW 09:03:51 28° NW 09:03:51 28° NW
ADEOS II 1.9 09:01:12 10° N 09:06:28 78° WNW 09:07:08 67° SW
Cosmos 1758 4.1 09:03:45 10° NNW 09:06:43 44° NNW 09:06:43 44° NNW
Resurs 1-4 Rocket 3.0 09:03:43 10° N 09:08:21 33° WNW 09:08:26 33° WNW
COSMOS 2455 3.4 09:02:39 10° NNW 09:08:36 58° ENE 09:14:29 10° SE
Cosmos 1726 4.1 09:08:13 10° NNW 09:09:36 20° NW 09:09:36 20° NW
Cosmos 1908 4.3 09:08:04 10° N 09:11:46 42° E 09:12:47 34° ESE
Lacrosse 4 Rocket 3.5 09:11:35 17° SE 09:13:11 21° ESE 09:16:32 10° ENE
Cosmos 2251 Rocket 3.9 09:09:28 10° NNW 09:14:40 61° ENE 09:19:20 13° SSE
Cosmos 2219 4.1 09:10:41 10° NNW 09:16:13 49° ENE 09:21:45 10° SE
Cosmos 1315 Rocket 2.9 09:13:07 10° NNW 09:16:37 67° NNW 09:16:37 67° NNW
IRS-1D 3.5 09:13:41 10° N 09:19:00 73° WNW 09:20:11 54° SW
Cosmos 1626 2.7 09:21:55 48° ESE 09:22:19 51° E 09:25:55 10° NNE
Cosmos 1725 Rocket 4.0 09:18:25 10° N 09:24:43 81° E 09:29:13 20° S
Timation 2 Rocket 4.4 09:19:42 10° NNW 09:25:36 58° ENE 09:31:31 10° SE
Cosmos 2061 Rocket 4.0 09:19:50 10° N 09:26:11 90° W 09:30:22 23° S
Cosmos 1025 Rocket 3.0 09:25:43 58° S 09:26:31 81° E 09:30:53 10° N
Cosmos 1656 3.6 09:26:49 48° SW 09:28:09 66° WNW 09:33:37 10° NNE
Meteor 1-28 Rocket 3.1 09:30:03 70° WNW 09:30:03 70° WNW 09:33:31 10° NNW
GP-B 3.1 09:30:43 10° N 09:35:10 83° E 09:36:50 38° S
IRS-1C 4.1 09:33:00 10° NNE 09:38:22 79° ESE 09:41:11 29° S
Cosmos 1544 Rocket 3.5 09:34:15 10° N 09:38:39 83° E 09:40:54 28° S
CZ-2C R/B 1.7 09:40:07 35° SE 09:40:07 35° SE 09:42:20 10° ESE
Cosmos 2233 Rocket 4.2 09:35:01 10° N 09:41:14 70° E 09:47:21 10° SSE
Cosmos 1459 Rocket 4.5 09:36:42 10° NNW 09:42:28 40° W 09:44:16 33° SW
ADEOS Rocket 3.4 09:37:17 17° S 09:43:00 69° W 09:50:40 10° NNW
Cosmos 2016 Rocket 4.0 09:37:07 10° NNW 09:43:16 61° W 09:46:44 26° SSW
Meteor 1-16 Rocket 4.3 09:39:49 10° NNW 09:45:43 68° W 09:49:39 21° S
Cosmos 1340 4.4 09:43:14 12° SSE 09:46:07 29° E 09:49:24 10° NNE
Cosmos 1455 Rocket 3.4 09:45:27 10° NNW 09:49:32 41° W 09:50:01 39° WSW
Cosmos 1536 Rocket 3.5 09:50:07 30° S 09:52:16 87° E 09:56:42 10° N
SL-08 R/B 3.7 09:47:47 10° SSE 09:52:30 64° ENE 09:57:08 10° N
ARIANE 5 R/B 2.5 09:52:23 10° NNE 09:57:35 87° WNW 10:00:55 22° SSW
OAO 3 Rocket 3.7 09:58:42 33° SW 09:59:49 37° SSW 10:04:20 10° SE
Lacrosse 5 3.6 09:57:34 14° WNW 10:00:31 23° NNW 10:04:35 10° NNE
Cosmos 1697 Rocket 2.7 09:58:11 28° SW 10:01:14 70° WNW 10:06:50 10° NNE
Cosmos 1140 Rocket 4.2 09:56:16 10° N 10:01:23 55° ENE 10:06:30 10° SSE
Centaur D-1AR AC-39 4.0 10:00:53 17° SSW 10:03:45 23° SSE 10:15:20 10° ESE
Cosmos 304 Rocket 3.9 10:03:04 29° SW 10:05:16 55° WNW 10:09:59 10° N
SL-16 R/B 4.2 10:08:48 14° W 10:08:48 14° W 10:11:55 10° WNW
Cosmos 1980 Rocket 2.4 10:06:27 16° SSW 10:11:05 72° ESE 10:16:45 10° NNE
Cosmos 1953 3.4 10:08:39 10° NW 10:11:54 25° W 10:12:14 24° W
Cosmos 614 Rocket 4.1 10:08:09 10° NNW 10:13:03 49° WSW 10:17:58 10° S
Cosmos 2228 4.4 10:09:54 10° N 10:13:55 39° ENE 10:17:55 10° SSE
Cosmos 2369 3.7 10:13:21 20° SSW 10:17:21 70° WNW 10:23:05 10° NNE
BREEZE-M DEB (TANK) 2.4 10:16:08 23° W 10:17:49 43° NW 10:20:00 10° NE
Cosmos 2278 3.9 10:15:57 13° SSW 10:21:09 77° ESE 10:26:52 10° NNE
Cosmos 2227 Rocket 2.3 10:16:11 10° NNW 10:21:40 53° WSW 10:27:07 10° S
ALOS 3.7 10:19:08 10° NNE 10:23:27 37° E 10:27:44 10° SSE
APEX 4.1 10:19:12 10° NNW 10:23:42 75° ENE 10:29:19 10° SSE
Cosmos 2297 Rocket 2.7 10:20:11 10° NW 10:25:20 37° WSW 10:30:28 10° S
Cosmos 405 4.0 10:23:06 10° N 10:26:31 48° ENE 10:29:55 10° SSE
CZ-3B R/B 3.6 10:26:01 11° S 10:27:52 14° SSE 10:30:49 10° ESE
Cosmos 1624 Rocket 4.1 10:24:33 16° SSW 10:28:48 64° WNW 10:34:07 10° NNE
Tianhe-1 1.0 10:26:19 12° WNW 10:29:13 86° NNE 10:32:21 10° ESE
BREEZE-M DEB (TANK) 4.4 10:14:41 10° WNW 10:29:59 78° NNE 10:33:54 10° ESE
Cosmos 407 Rocket 3.5 10:26:54 10° NNW 10:32:12 67° WSW 10:37:30 10° S
Cosmos 2082 3.7 10:27:23 10° NNW 10:33:06 86° WSW 10:38:49 10° SSE
Cosmos 1300 2.9 10:32:39 10° NNW 10:36:21 49° W 10:40:02 10° S
IDEFIX/ARIANE 42P 4.0 10:33:34 10° NNW 10:37:35 23° WNW 10:40:52 13° WSW
SL-16 R/B 3.9 10:33:28 10° SSE 10:38:22 31° ESE 10:43:17 10° NE
CZ-2C R/B 2.8 10:34:31 10° N 10:38:30 80° WNW 10:42:31 10° SSW
Meteor 2-5 Rocket 4.1 10:34:32 11° SSW 10:39:53 48° WNW 10:45:23 10° N
CZ-2C R/B 2.5 10:35:26 10° N 10:40:31 78° WNW 10:45:41 10° SSW
CZ-4B R/B 4.5 10:37:33 10° N 10:41:48 29° WNW 10:45:39 12° SW
Meteor 1-24 Rocket 3.9 10:38:42 10° SSW 10:44:17 55° WNW 10:49:42 10° N
USA 129 2.8 10:44:24 14° SSW 10:45:55 25° WSW 10:47:44 10° NW
Spot 4 Rocket 4.3 10:41:04 10° N 10:46:01 49° WNW 10:50:56 10° SW
Cosmos 1452 Rocket 4.1 10:42:06 10° S 10:47:15 60° ESE 10:52:28 10° NNE
Cosmos 2056 Rocket 4.0 10:44:47 12° SW 10:49:15 41° WNW 10:54:05 10° N
Lacrosse 4 Rocket 2.4 10:47:55 12° WSW 10:51:37 35° WNW 10:55:44 10° N
FENGYUN 3A 3.8 10:47:13 10° NNE 10:52:37 83° ESE 10:57:59 10° SSW
COSMOS 2455 4.0 10:49:44 10° WNW 10:54:00 21° WSW 10:58:16 10° SSW
Cosmos 1892 Rocket 3.6 10:51:05 10° S 10:55:26 85° E 10:59:47 10° N
PSLV R/B 3.5 10:51:35 10° NNE 10:55:47 87° WNW 10:59:58 10° SSW
Aureole 2 Rocket 4.5 10:53:57 10° N 10:56:17 26° ENE 10:58:37 10° SE
Cosmos 1455 3.5 10:52:42 10° N 10:56:23 44° E 11:00:03 10° SSE
Cosmos 1954 Rocket 4.0 10:52:13 10° NNW 10:57:31 88° WSW 11:02:48 10° SSE
IRAS Rocket 4.2 10:52:18 10° SSE 10:57:51 79° WSW 11:03:28 10° NNW
PAYLOAD A 4.3 10:54:34 10° N 10:59:06 44° WNW 11:03:32 10° SW
Cosmos 2219 4.4 10:55:46 10° NW 10:59:57 21° W 11:04:08 10° SSW
Cosmos 2058 Rocket 3.7 11:02:47 10° N 11:07:15 62° E 11:11:42 10° SSE
Cosmos 2322 Rocket 3.4 11:04:31 10° S 11:09:52 45° ESE 11:15:15 10° NE
Cosmos 1464 Rocket 4.0 11:05:14 10° NNW 11:11:17 62° W 11:17:22 10° S
